Flag for Norway Weather past 2 weeks in Haugesund, Norway

Now
43 °F

Rain showers. Partly cloudy.


Feels Like: 35 °F
Forecast: 41 / 43 °F
Wind: 17 mph from Southwest

Location: Haugesund / Karmoy

Current Time: Dec 18, 2014 at 3:45:36 AM

Latest Report: Dec 18, 2014 at 2:50 AM


Visibility: 6 mi

Pressure: 29.33 "Hg

Humidity: 87%

Dew point: 39 °F

Location of HaugesundLocation

Historic Weather in Haugesund — Graph

°F

Haugesund temperature yesterday

Maximum temperature yesterday: 46 °F (at 7:50 PM)
Minimum temperature yesterday: 37 °F (at 4:20 AM)
Average temperature yesterday: 42 °F

Past Weeks' High & Low Weather Summary

 TemperatureHumidityPressure
High48 °F (Dec 6, 9:20 PM)100% (Dec 3, 2:20 AM)30.27 "Hg (Dec 3, 2:20 AM)
Low32 °F (Dec 6, 8:50 AM)56% (Dec 15, 5:20 PM)28.88 "Hg (Dec 11, 2:50 PM)
Average42 °F82%29.51 "Hg
* Reported Dec 3 2:20 AM — Dec 18 2:20 AM, Haugesund, Weather by CustomWeather, © 2014

Note: Actual official high and low records may vary slightly from our data, if they occured in-between our weather recording intervals... More about our weather records

Advertising

Haugesund weather history for previous 24 hours

 ConditionsComfort  
Time TempWeatherWind HumidityBarometerVisibility
2:20 AM
Dec 18
46 °FPassing clouds.21 mph76%29.33 "HgN/A
1:50 AM46 °FSprinkles. Partly cloudy.21 mph76%29.33 "HgN/A
1:20 AM46 °FMostly cloudy.20 mph76%29.33 "HgN/A
12:50 AM46 °FLight rain. Partly cloudy.16 mph76%29.33 "HgN/A
12:20 AM46 °FPartly cloudy.14 mph71%29.33 "HgN/A
11:50 PM
Dec 17
46 °FPartly cloudy.17 mph71%29.33 "HgN/A
11:20 PM46 °FMostly cloudy.18 mph82%29.33 "HgN/A
10:50 PM46 °FPartly cloudy.18 mph82%29.33 "HgN/A
10:20 PM46 °FPassing clouds.21 mph82%29.33 "HgN/A
9:50 PM46 °FPartly cloudy.17 mph87%29.33 "HgN/A
9:20 PM46 °FSprinkles. Partly cloudy.17 mph82%29.30 "HgN/A
8:50 PM46 °FPartly cloudy.18 mph82%29.30 "Hg6 mi
8:20 PM46 °FPassing clouds.16 mph82%29.30 "HgN/A
7:50 PM46 °FPassing clouds.18 mph82%29.30 "HgN/A
7:20 PM43 °FPartly cloudy.13 mph93%29.30 "HgN/A
6:50 PM43 °FSprinkles. Partly cloudy.9 mph93%29.30 "HgN/A
6:20 PM43 °FLight rain. Passing clouds.15 mph93%29.30 "HgN/A
5:50 PM43 °FLight rain. Mostly cloudy.18 mph93%29.30 "Hg4 mi
5:20 PM41 °FRain. Mostly cloudy.16 mph100%29.30 "Hg2 mi
4:50 PM41 °FRain. Overcast.16 mph93%29.30 "Hg3 mi
4:20 PM41 °FRain. Partly cloudy.22 mph93%29.30 "Hg4 mi
3:50 PM41 °FLight rain. Partly cloudy.20 mph93%29.30 "Hg4 mi
3:20 PM41 °FLight rain. Fog.20 mph93%29.30 "Hg2 mi
2:50 PM41 °FSprinkles. Partly sunny.21 mph87%29.30 "Hg5 mi
2:20 PM41 °FSprinkles. Mostly cloudy.17 mph87%29.30 "HgN/A
1:50 PM41 °FLight rain. Cloudy.17 mph87%29.30 "HgN/A
1:20 PM43 °FBroken clouds.17 mph81%29.33 "HgN/A
12:20 PM41 °FBroken clouds.17 mph87%29.33 "HgN/A
11:50 AM41 °FBroken clouds.17 mph87%29.33 "HgN/A
11:20 AM41 °FPartly sunny.16 mph87%29.36 "HgN/A
10:50 AM41 °FPartly sunny.16 mph87%29.36 "HgN/A
10:20 AM41 °FPartly sunny.14 mph87%29.36 "HgN/A
9:50 AM41 °FSprinkles. Partly sunny.16 mph87%29.36 "HgN/A
9:20 AM39 °FSprinkles. Passing clouds.13 mph93%29.36 "HgN/A
8:50 AM39 °FSprinkles. Passing clouds.14 mph93%29.39 "HgN/A
7:50 AM39 °FSprinkles. Partly cloudy.13 mph93%29.39 "HgN/A
7:20 AM39 °FPassing clouds.12 mph93%29.39 "HgN/A
6:50 AM39 °FPassing clouds.12 mph93%29.39 "HgN/A
6:20 AM39 °FPassing clouds.13 mph93%29.39 "HgN/A
5:50 AM37 °FPassing clouds.10 mph100%29.39 "HgN/A
5:20 AM37 °FPartly cloudy.10 mph93%29.42 "HgN/A
4:50 AM37 °FOvercast.10 mph93%29.42 "HgN/A
4:20 AM37 °FPassing clouds.10 mph87%29.42 "HgN/A
3:50 AM41 °FSprinkles. Passing clouds.2 mph87%29.42 "HgN/A
3:20 AM41 °FDrizzle. Mostly cloudy.12 mph87%29.45 "Hg4 mi
Weather by CustomWeather, © 2014

See weather overviewHow to use our weather pages